| time (UTC) | temp C | wind direction | speed KPH | gust KPH | rain 1hr cm | rain 24hr cm | rain mn cm | humidity % | barometer mb |
| 20260505022600 | 15 | 195 | 0.0 | 0.0 | 0.00 | 0.00 | 0.00 | 71 | 1017.6 |
| 20260505022057 | 15 | 199 | 0.0 | 0.0 | 0.00 | 0.00 | 0.00 | 71 | 1017.9 |
| 20260505021553 | 15 | 210 | 0.0 | 0.0 | 0.00 | 0.00 | 0.00 | 70 | 1017.6 |
| 20260505021050 | 15 | 217 | 0.0 | 0.0 | 0.00 | 0.00 | 0.00 | 70 | 1017.6 |
| 20260505020550 | 15 | 229 | 0.0 | 0.0 | 0.00 | 0.00 | 0.00 | 68 | 1017.6 |
| 20260505020047 | 16 | 191 | 0.0 | 0.0 | 0.00 | 0.00 | 0.00 | 68 | 1017.6 |
| 20260505015544 | 16 | 192 | 0.0 | 0.0 | 0.00 | 0.00 | 0.00 | 68 | 1017.6 |
| 20260505015041 | 16 | 209 | 0.0 | 0.0 | 0.00 | 0.00 | 0.00 | 69 | 1017.2 |
| 20260505014538 | 16 | 236 | 0.0 | 0.0 | 0.00 | 0.00 | 0.00 | 67 | 1017.2 |
| 20260505014035 | 16 | 220 | 0.0 | 0.0 | 0.00 | 0.00 | 0.00 | 66 | 1017.2 |
| 20260505013532 | 16 | 219 | 0.0 | 0.0 | 0.00 | 0.00 | 0.00 | 63 | 1017.2 |
| 20260505013030 | 16 | 208 | 0.0 | 0.0 | 0.00 | 0.00 | 0.00 | 63 | 1017.2 |
| 20260505012527 | 17 | 209 | 0.0 | 0.0 | 0.00 | 0.00 | 0.00 | 62 | 1017.2 |
| 20260505012024 | 17 | 198 | 0.0 | 0.0 | 0.00 | 0.00 | 0.00 | 60 | 1017.2 |
| 20260505011520 | 17 | 197 | 0.0 | 0.0 | 0.00 | 0.00 | 0.00 | 60 | 1016.9 |
| 20260505011017 | 17 | 198 | 0.0 | 0.0 | 0.00 | 0.00 | 0.00 | 58 | 1017.2 |
| 20260505010512 | 18 | 193 | 0.0 | 0.0 | 0.00 | 0.00 | 0.00 | 57 | 1016.9 |
| 20260505010009 | 18 | 193 | 0.0 | 0.0 | 0.00 | 0.00 | 0.00 | 57 | 1016.6 |
| 20260505005506 | 18 | 193 | 0.0 | 0.0 | 0.00 | 0.00 | 0.00 | 57 | 1016.9 |
| 20260505005004 | 18 | 188 | 0.0 | 0.0 | 0.00 | 0.00 | 0.00 | 55 | 1016.9 |
| 20260505004500 | 19 | 166 | 0.0 | 1.6 | 0.00 | 0.00 | 0.00 | 53 | 1016.6 |
| 20260505003956 | 19 | 209 | 0.0 | 0.0 | 0.00 | 0.00 | 0.00 | 52 | 1016.9 |
| 20260505003454 | 20 | 209 | 0.0 | 0.0 | 0.00 | 0.00 | 0.00 | 52 | 1016.9 |
| 20260505002950 | 20 | 175 | 0.0 | 0.0 | 0.00 | 0.00 | 0.00 | 51 | 1016.9 |
| 20260505002446 | 20 | 208 | 0.0 | 0.0 | 0.00 | 0.00 | 0.00 | 50 | 1016.6 |
| 20260505001945 | 21 | 208 | 0.0 | 0.0 | 0.00 | 0.00 | 0.00 | 46 | 1016.6 |
| 20260505001442 | 21 | 206 | 0.0 | 0.0 | 0.00 | 0.00 | 0.00 | 45 | 1016.6 |
| 20260505000939 | 22 | 158 | 1.6 | 1.6 | 0.00 | 0.00 | 0.00 | 45 | 1016.6 |
| 20260505000437 | 22 | 197 | 0.0 | 0.0 | 0.00 | 0.00 | 0.00 | 41 | 1016.6 |
| 20260504235933 | 22 | 211 | 0.0 | 0.0 | 0.00 | 0.00 | 0.00 | 38 | 1016.6 |
| 20260504235431 | 23 | 220 | 0.0 | 0.0 | 0.00 | 0.00 | 0.00 | 37 | 1016.6 |
| 20260504234927 | 23 | 249 | 1.6 | 1.6 | 0.00 | 0.00 | 0.00 | 37 | 1016.6 |
| 20260504234424 | 23 | 212 | 0.0 | 1.6 | 0.00 | 0.00 | 0.00 | 36 | 1016.9 |
| 20260504233921 | 24 | 225 | 0.0 | 3.2 | 0.00 | 0.00 | 0.00 | 35 | 1016.9 |
| 20260504233417 | 24 | 231 | 0.0 | 1.6 | 0.00 | 0.00 | 0.00 | 35 | 1016.9 |
| 20260504232914 | 25 | 133 | 1.6 | 1.6 | 0.00 | 0.00 | 0.00 | 35 | 1016.9 |
| 20260504232411 | 25 | 210 | 3.2 | 4.8 | 0.00 | 0.00 | 0.00 | 34 | 1016.6 |
| 20260504231908 | 25 | 258 | 1.6 | 3.2 | 0.00 | 0.00 | 0.00 | 34 | 1016.6 |
| 20260504231404 | 25 | 241 | 0.0 | 1.6 | 0.00 | 0.00 | 0.00 | 33 | 1016.6 |
| 20260504230901 | 25 | 240 | 3.2 | 3.2 | 0.00 | 0.00 | 0.00 | 33 | 1016.6 |
| 20260504230358 | 25 | 188 | 4.8 | 6.4 | 0.00 | 0.00 | 0.00 | 32 | 1016.6 |
| 20260504225856 | 26 | 241 | 0.0 | 1.6 | 0.00 | 0.00 | 0.00 | 34 | 1016.6 |
| 20260504225352 | 26 | 214 | 1.6 | 4.8 | 0.00 | 0.00 | 0.00 | 32 | 1016.6 |
| 20260504224850 | 26 | 239 | 0.0 | 9.7 | 0.00 | 0.00 | 0.00 | 33 | 1016.6 |
| 20260504224347 | 25 | 239 | 0.0 | 1.6 | 0.00 | 0.00 | 0.00 | 34 | 1016.6 |
| 20260504223843 | 25 | 209 | 0.0 | 0.0 | 0.00 | 0.00 | 0.00 | 31 | 1016.6 |
| 20260504223339 | 25 | 223 | 1.6 | 3.2 | 0.00 | 0.00 | 0.00 | 29 | 1016.6 |
| 20260504222836 | 25 | 226 | 0.0 | 1.6 | 0.00 | 0.00 | 0.00 | 31 | 1016.6 |
| 20260504222332 | 25 | 229 | 0.0 | 3.2 | 0.00 | 0.00 | 0.00 | 31 | 1016.6 |
| 20260504221831 | 26 | 235 | 0.0 | 3.2 | 0.00 | 0.00 | 0.00 | 29 | 1016.6 |
| 20260504221327 | 25 | 252 | 4.8 | 4.8 | 0.00 | 0.00 | 0.00 | 28 | 1016.6 |
| 20260504220825 | 26 | 239 | 1.6 | 4.8 | 0.00 | 0.00 | 0.00 | 26 | 1016.6 |
| 20260504220321 | 25 | 245 | 1.6 | 3.2 | 0.00 | 0.00 | 0.00 | 26 | 1016.6 |
| 20260504215819 | 26 | 178 | 6.4 | 9.7 | 0.00 | 0.00 | 0.00 | 26 | 1016.6 |
| 20260504215315 | 26 | 266 | 6.4 | 9.7 | 0.00 | 0.00 | 0.00 | 26 | 1016.6 |
| 20260504214811 | 26 | 256 | 1.6 | 6.4 | 0.00 | 0.00 | 0.00 | 26 | 1016.6 |
| 20260504214308 | 25 | 159 | 1.6 | 4.8 | 0.00 | 0.00 | 0.00 | 29 | 1016.6 |
| 20260504213804 | 25 | 127 | 3.2 | 11.3 | 0.00 | 0.00 | 0.00 | 30 | 1016.6 |
| 20260504213300 | 25 | 175 | 9.7 | 12.9 | 0.00 | 0.00 | 0.00 | 31 | 1016.6 |
| 20260504212758 | 25 | 242 | 0.0 | 3.2 | 0.00 | 0.00 | 0.00 | 33 | 1016.6 |
| 20260504212254 | 25 | 98 | 6.4 | 12.9 | 0.00 | 0.00 | 0.00 | 33 | 1016.6 |
| 20260504211752 | 25 | 158 | 4.8 | 9.7 | 0.00 | 0.00 | 0.00 | 33 | 1016.6 |
| 20260504211247 | 25 | 111 | 9.7 | 14.5 | 0.00 | 0.00 | 0.00 | 31 | 1016.6 |
| 20260504210745 | 25 | 88 | 3.2 | 6.4 | 0.00 | 0.00 | 0.00 | 33 | 1016.6 |
| 20260504210242 | 25 | 201 | 0.0 | 6.4 | 0.00 | 0.00 | 0.00 | 35 | 1016.6 |
| 20260504205739 | 25 | 158 | 6.4 | 11.3 | 0.00 | 0.00 | 0.00 | 32 | 1016.6 |
| 20260504205237 | 26 | 142 | 1.6 | 9.7 | 0.00 | 0.00 | 0.00 | 33 | 1016.6 |
| 20260504204735 | 26 | 250 | 0.0 | 4.8 | 0.00 | 0.00 | 0.00 | 34 | 1016.9 |
| 20260504204233 | 26 | 233 | 1.6 | 4.8 | 0.00 | 0.00 | 0.00 | 34 | 1016.6 |
| 20260504203732 | 26 | 106 | 4.8 | 6.4 | 0.00 | 0.00 | 0.00 | 34 | 1016.6 |
| 20260504203229 | 25 | 282 | 3.2 | 11.3 | 0.00 | 0.00 | 0.00 | 34 | 1016.6 |
| 20260504202729 | 25 | 162 | 1.6 | 6.4 | 0.00 | 0.00 | 0.00 | 33 | 1017.2 |
| 20260504202226 | 25 | 260 | 1.6 | 4.8 | 0.00 | 0.00 | 0.00 | 32 | 1016.9 |
| 20260504201724 | 26 | 175 | 4.8 | 11.3 | 0.00 | 0.00 | 0.00 | 32 | 1016.9 |
| 20260504201221 | 26 | 252 | 8.0 | 9.7 | 0.00 | 0.00 | 0.00 | 31 | 1016.9 |
| 20260504200718 | 25 | 240 | 1.6 | 3.2 | 0.00 | 0.00 | 0.00 | 31 | 1017.2 |
| 20260504200214 | 26 | 127 | 8.0 | 11.3 | 0.00 | 0.00 | 0.00 | 32 | 1017.2 |
| 20260504195711 | 25 | 314 | 3.2 | 6.4 | 0.00 | 0.00 | 0.00 | 32 | 1017.2 |
| 20260504195207 | 25 | 121 | 3.2 | 6.4 | 0.00 | 0.00 | 0.00 | 33 | 1017.6 |
| 20260504194704 | 25 | 209 | 1.6 | 1.6 | 0.00 | 0.00 | 0.00 | 33 | 1017.2 |
| 20260504194200 | 25 | 260 | 3.2 | 6.4 | 0.00 | 0.00 | 0.00 | 33 | 1017.6 |
| 20260504193656 | 25 | 97 | 3.2 | 6.4 | 0.00 | 0.00 | 0.00 | 34 | 1017.2 |
| 20260504193154 | 25 | 285 | 1.6 | 4.8 | 0.00 | 0.00 | 0.00 | 35 | 1017.6 |
| 20260504192652 | 25 | 157 | 6.4 | 6.4 | 0.00 | 0.00 | 0.00 | 33 | 1017.6 |
| 20260504192150 | 25 | 176 | 1.6 | 4.8 | 0.00 | 0.00 | 0.00 | 34 | 1017.9 |
| 20260504191648 | 25 | 238 | 6.4 | 11.3 | 0.00 | 0.00 | 0.00 | 34 | 1017.9 |
| 20260504191144 | 26 | 150 | 4.8 | 6.4 | 0.00 | 0.00 | 0.00 | 31 | 1017.9 |
| 20260504190640 | 25 | 256 | 6.4 | 9.7 | 0.00 | 0.00 | 0.00 | 30 | 1018.3 |
| 20260504190137 | 24 | 206 | 0.0 | 3.2 | 0.00 | 0.00 | 0.00 | 37 | 1018.3 |
| 20260504185633 | 25 | 72 | 4.8 | 4.8 | 0.00 | 0.00 | 0.00 | 33 | 1018.3 |
| 20260504185130 | 25 | 175 | 1.6 | 4.8 | 0.00 | 0.00 | 0.00 | 34 | 1018.6 |
| 20260504184626 | 25 | 288 | 3.2 | 4.8 | 0.00 | 0.00 | 0.00 | 31 | 1018.3 |
| 20260504184121 | 24 | 346 | 1.6 | 9.7 | 0.00 | 0.00 | 0.00 | 32 | 1018.6 |
| 20260504183619 | 25 | 259 | 0.0 | 4.8 | 0.00 | 0.00 | 0.00 | 31 | 1018.6 |
| 20260504183116 | 24 | 226 | 0.0 | 4.8 | 0.00 | 0.00 | 0.00 | 37 | 1018.6 |
| 20260504182614 | 23 | 127 | 1.6 | 3.2 | 0.00 | 0.00 | 0.00 | 32 | 1018.6 |
| 20260504182111 | 24 | 71 | 3.2 | 4.8 | 0.00 | 0.00 | 0.00 | 31 | 1018.6 |
| 20260504181608 | 25 | 144 | 6.4 | 12.9 | 0.00 | 0.00 | 0.00 | 33 | 1018.6 |
| 20260504181106 | 25 | 224 | 0.0 | 3.2 | 0.00 | 0.00 | 0.00 | 36 | 1018.6 |
| 20260504180605 | 24 | 225 | 4.8 | 4.8 | 0.00 | 0.00 | 0.00 | 37 | 1018.9 |
| 20260504180103 | 23 | 171 | 4.8 | 9.7 | 0.00 | 0.00 | 0.00 | 36 | 1018.9 |
| 20260504175600 | 23 | 134 | 8.0 | 9.7 | 0.00 | 0.00 | 0.00 | 34 | 1018.9 |
| 20260504175056 | 23 | 112 | 8.0 | 9.7 | 0.00 | 0.00 | 0.00 | 35 | 1018.9 |
| 20260504174555 | 23 | 92 | 3.2 | 9.7 | 0.00 | 0.00 | 0.00 | 37 | 1018.9 |
| 20260504174051 | 24 | 307 | 3.2 | 4.8 | 0.00 | 0.00 | 0.00 | 38 | 1018.9 |
| 20260504173548 | 23 | 230 | 0.0 | 3.2 | 0.00 | 0.00 | 0.00 | 37 | 1019.3 |
| 20260504173046 | 23 | 238 | 3.2 | 4.8 | 0.00 | 0.00 | 0.00 | 38 | 1018.9 |
| 20260504172541 | 24 | 255 | 6.4 | 6.4 | 0.00 | 0.00 | 0.00 | 35 | 1019.3 |
| 20260504172038 | 23 | 226 | 4.8 | 6.4 | 0.00 | 0.00 | 0.00 | 39 | 1019.3 |
| 20260504171535 | 23 | 237 | 3.2 | 9.7 | 0.00 | 0.00 | 0.00 | 37 | 1019.3 |
| 20260504171032 | 23 | 166 | 1.6 | 11.3 | 0.00 | 0.00 | 0.00 | 37 | 1019.3 |
| 20260504170528 | 23 | 225 | 0.0 | 3.2 | 0.00 | 0.00 | 0.00 | 43 | 1019.3 |
| 20260504150912 | 21 | 214 | 1.6 | 6.4 | 0.00 | 0.00 | 0.00 | 39 | 1020.7 |
| 20260504150409 | 21 | 298 | 4.8 | 9.7 | 0.00 | 0.00 | 0.00 | 36 | 1020.7 |
| 20260504140835 | 20 | 123 | 1.6 | 3.2 | 0.00 | 0.00 | 0.00 | 56 | 1021.1 |
| 20260504140330 | 18 | 156 | 1.6 | 3.2 | 0.00 | 0.00 | 0.00 | 61 | 1021.1 |
| 20260504130800 | 15 | 221 | 1.6 | 1.6 | 0.00 | 0.00 | 0.00 | 81 | 1021.1 |
| 20260504130256 | 14 | 210 | 0.0 | 1.6 | 0.00 | 0.00 | 0.00 | 83 | 1020.7 |
| 20260504120219 | 8 | 239 | 1.6 | 3.2 | 0.00 | 0.00 | 0.00 | 99 | 1020.4 |
| 20260504110646 | 7 | 207 | 0.0 | 0.0 | 0.00 | 0.00 | 0.00 | 99 | 1020.4 |
| 20260504110143 | 7 | 223 | 0.0 | 0.0 | 0.00 | 0.00 | 0.00 | 99 | 1020.1 |
| 20260504100603 | 7 | 230 | 0.0 | 0.0 | 0.00 | 0.00 | 0.00 | 99 | 1020.1 |
| 20260504081956 | 8 | 236 | 0.0 | 0.0 | 0.00 | 0.00 | 0.00 | 99 | 1020.1 |
| 20260504081454 | 8 | 237 | 0.0 | 0.0 | 0.00 | 0.00 | 0.00 | 99 | 1020.1 |
| 20260504080949 | 7 | 228 | 0.0 | 0.0 | 0.00 | 0.00 | 0.00 | 99 | 1020.1 |
| 20260504080446 | 7 | 227 | 0.0 | 0.0 | 0.00 | 0.00 | 0.00 | 99 | 1020.1 |
| 20260504050259 | 10 | 229 | 0.0 | 0.0 | 0.00 | 0.00 | 0.00 | 97 | 1020.7 |
| 20260504045751 | 10 | 229 | 0.0 | 0.0 | 0.00 | 0.00 | 0.00 | 97 | 1020.7 |
| 20260504045250 | 10 | 230 | 0.0 | 0.0 | 0.00 | 0.00 | 0.00 | 96 | 1021.1 |
| 20260504044748 | 10 | 230 | 0.0 | 0.0 | 0.00 | 0.00 | 0.00 | 96 | 1020.7 |
| 20260504044245 | 9 | 229 | 0.0 | 0.0 | 0.00 | 0.00 | 0.00 | 95 | 1020.7 |
| 20260504043742 | 10 | 229 | 0.0 | 0.0 | 0.00 | 0.00 | 0.00 | 95 | 1020.7 |
| 20260504043239 | 10 | 229 | 0.0 | 0.0 | 0.00 | 0.00 | 0.00 | 95 | 1020.7 |
| 20260504042737 | 10 | 224 | 0.0 | 0.0 | 0.00 | 0.00 | 0.00 | 95 | 1020.7 |
| 20260504042233 | 10 | 211 | 0.0 | 0.0 | 0.00 | 0.00 | 0.00 | 95 | 1020.4 |
| 20260504041729 | 10 | 224 | 0.0 | 0.0 | 0.00 | 0.00 | 0.00 | 94 | 1020.7 |
| 20260504041225 | 10 | 216 | 0.0 | 0.0 | 0.00 | 0.00 | 0.00 | 93 | 1020.4 |
| 20260504040722 | 10 | 222 | 0.0 | 0.0 | 0.00 | 0.00 | 0.00 | 94 | 1020.4 |
| 20260504040219 | 10 | 233 | 0.0 | 0.0 | 0.00 | 0.00 | 0.00 | 93 | 1020.7 |
| 20260504035715 | 10 | 226 | 0.0 | 0.0 | 0.00 | 0.00 | 0.00 | 93 | 1020.7 |
| 20260504035213 | 11 | 198 | 0.0 | 0.0 | 0.00 | 0.00 | 0.00 | 92 | 1020.4 |
| 20260504034710 | 11 | 192 | 0.0 | 0.0 | 0.00 | 0.00 | 0.00 | 92 | 1020.4 |
| 20260504034207 | 11 | 171 | 1.6 | 1.6 | 0.00 | 0.00 | 0.00 | 93 | 1020.4 |
| 20260504033705 | 11 | 208 | 0.0 | 0.0 | 0.00 | 0.00 | 0.00 | 91 | 1020.4 |
| 20260504033202 | 11 | 205 | 0.0 | 0.0 | 0.00 | 0.00 | 0.00 | 91 | 1020.7 |
| 20260504032658 | 11 | 203 | 0.0 | 1.6 | 0.00 | 0.00 | 0.00 | 91 | 1020.4 |
| 20260504032156 | 11 | 217 | 0.0 | 0.0 | 0.00 | 0.00 | 0.00 | 90 | 1020.1 |
| 20260504031653 | 11 | 200 | 0.0 | 0.0 | 0.00 | 0.00 | 0.00 | 90 | 1020.4 |
| 20260504031149 | 11 | 216 | 0.0 | 0.0 | 0.00 | 0.00 | 0.00 | 90 | 1020.4 |
| 20260504030646 | 11 | 217 | 0.0 | 0.0 | 0.00 | 0.00 | 0.00 | 88 | 1020.4 |
| 20260504030143 | 12 | 217 | 0.0 | 0.0 | 0.00 | 0.00 | 0.00 | 87 | 1020.4 |
| 20260504025639 | 11 | 230 | 0.0 | 0.0 | 0.00 | 0.00 | 0.00 | 86 | 1020.4 |
| 20260504025136 | 12 | 231 | 0.0 | 0.0 | 0.00 | 0.00 | 0.00 | 85 | 1020.4 |
| 20260504024633 | 12 | 217 | 0.0 | 0.0 | 0.00 | 0.00 | 0.00 | 85 | 1020.1 |
| 20260504024130 | 12 | 204 | 0.0 | 0.0 | 0.00 | 0.00 | 0.00 | 84 | 1020.1 |
| 20260504023627 | 12 | 235 | 1.6 | 3.2 | 0.00 | 0.00 | 0.00 | 83 | 1020.4 |
| 20260504023123 | 12 | 270 | 0.0 | 3.2 | 0.00 | 0.00 | 0.00 | 83 | 1020.1 |